Regional Weather Roundup
Issued by NWS

Home | Current Version | Previous Version | Text Only | Print | Product List | Glossary On
Versions: 1 2 3 4 5 6 7 8 9 10 11 12 13 14 15 16 17 18 19 20 21 22 23 24 25 26 27 28 29 30 31 32 33 34 35 36 37 38 39 40 41 42 43 44 45 46 47 48 49 50
000
ASUS45 KSLC 010810
RWRUT

UTAH REGIONAL WEATHER ROUNDUP
NATIONAL WEATHER SERVICE SALT LAKE CITY UT
200 AM MDT MON SEP 01 2014

UTZ001>011-023>025-010900-

NORTHERN UTAH

CITY           SKY/WX    TMP DP  RH WIND       PRES   REMARKS
HILL AFB       CLEAR     57  33  40 E15       30.03R
LOGAN          CLEAR     50  44  80 E6        30.02F
OGDEN          CLEAR     56  34  43 S7        30.01R
PROVO AIRPORT  CLEAR     55  41  58 S5        30.04S
SALT LAKE CITY CLEAR     58  39  49 SE7       30.00R
VERNAL         CLEAR     54  37  52 CALM      30.06R
WENDOVER       CLEAR     64  36  34 SW5       30.01R
HEBER CITY     CLEAR     43  36  75 E3        30.10S
WEST JORDAN    CLEAR     59  45  58 SW5       30.03R

$$

UTZ012>022-026-027-010900-

SOUTHERN UTAH

CITY           SKY/WX    TMP DP  RH WIND       PRES   REMARKS
BRYCE CANYON   CLEAR     41  34  76 W3        30.21S
CEDAR CITY     CLEAR     62  30  29 S7        30.05R
MILFORD        CLEAR     60  37  42 CALM      30.01R
MOAB/CYNLANDS  CLEAR     64  32  30 W6        29.98R
PRICE          CLEAR     58  33  39 N12       30.09R
ST GEORGE      SUNNY     75  37  25 N3        29.86S
KANAB            N/A     59  36  41 N5        30.06R

$$

REGIONAL REPORTS     COLORADO/ARIZONA

CITY           SKY/WX    TMP DP  RH WIND       PRES   REMARKS
CRAIG, CO      CLEAR     45  39  79 CALM      30.13S
GRAND JUNCTION CLEAR     54  42  64 CALM      30.02R
RIFLE          CLEAR     53  43  68 E6        30.08R
MONTROSE       CLEAR     55  41  59 S6        30.11R
CORTEZ         CLEAR     55  40  56 NW3       30.09R
PAGE, AZ       CLEAR     81  29  15 SW6       29.96R
GRAND CANYON     N/A    N/A N/A N/A MISG        N/A
KINGMAN        CLEAR     72  39  30 SE6       29.92S
FLAGSTAFF      CLEAR     53  41  63 W6        30.24F

$$

REGIONAL REPORTS    NEVADA/IDAHO/WYOMING

CITY           SKY/WX    TMP DP  RH WIND       PRES   REMARKS
LAS VEGAS, NV  CLEAR     88  28  11 S14       29.73S
ELY            CLEAR     48  34  58 S9        30.13R
ELKO           CLEAR     54  33  45 E6        30.07R
POCATELLO, ID  CLEAR     58  35  42 SW15      30.01R
BURLEY         CLEAR     52  42  69 SW8       30.01R
EVANSTON, WY   PTCLDY    47  30  51 S6        30.14F
ROCK SPRINGS   CLEAR     45  33  63 S6        30.13S

$$


USA.gov is the U.S. government's official web portal to all federal, state and local government web resources and services.